Member area
ImprimablePdf
Challenges > Delhalle - Dinant, 27/08/2006, BEL - La Descente de la Lesse
List of reports > Delhalle - 23,5km - Classement scratch
Search: Page: [1] 2 3 4
674 Entries
 
Complains are not accepted anymore. Results are final.
Category
PosNrNameAgeNATLeagueTeamRealTimeTkmMoy.PlaceNamePtsCity
1.48DUPONT Eddy37BELONHOXY20001:22:361:22:373:31 17.071SEN1135ECAUSSINNES
2.2439VAN REUSEL Jérôme32BELESM1:23:291:23:303:34 16.892SEN1123LOBBES
3.2580DEKEYSER Jonathan25BEL1:24:271:24:323:36 16.683SEN1110
4.1134VANDERBECK Yves38BELRIWARONVAU1:24:431:24:453:37 16.644SEN1106MALONNE
5.9DEVEIRMAN Didier26BELCSFTRAINING 71:26:481:26:493:42 16.245SEN1080BEERSEL
6.2288FAVEAUX Thierry43BELARCHJOGGING PLUS1:27:361:27:373:44 16.091VE11070LEIGNON
7.851COLSON Stephane41BELSPAJOGGPLUS1:28:151:28:163:46 15.972VE11061GRACE-HOLLOGNE
8.163NUTELET Carlos52BELCABW1:28:391:28:403:47 15.901VE21056ECAUSSINNES
9.2325HUNTER Trevor37GBRHANDY CROSS RUN1:29:291:29:323:49 15.756SEN10453ED
10.2523BEAUPERIN Christian43FRAPSA ACC1:30:101:30:163:51 15.623VE11037
11.2263DE ROMREE Ghislain30BELCSDY1:31:031:31:053:53 15.487SEN1026COURT-ST-ETIENNE
12.411RODRIGUEZ Luis46BELCEPAL1:31:011:31:073:53 15.474VE11026TUBIZE
13.6HUYGHE Vincent43BEL1:31:391:31:423:55 15.385VE11018JEMAPPES
14.1529LOMBART Frederic39BEL1:32:181:32:213:56 15.278SEN1010GEMBLOUX
15.2285ELLEBOUDT Guillaume31FRAJ C HERZEELE1:32:491:32:523:58 15.189SEN1003HOUTKERQUE
16.804DILIBERTO Antonino39BELJOGGPLUS1:32:581:33:003:58 15.1610SEN1001CRISNEE
17.2405RICHARD Pierre42BELCSDY1:33:091:33:113:58 15.136VE1998LIMELETTE
18.2300GODFRIN Marc41BELARCH1:33:201:33:243:59 15.107VE1996FINNEVAUX
19.2044ROSSI Claude48BELJOGGPLUS1:33:261:33:293:59 15.088VE1994YVOIR
20.149SOHNLE Erich26BELONHTORTUES1:33:421:33:434:00 15.0511SEN991CHAUSSEE-NOTRE-DAME
21.11DUBOIS Michel49BELHERV1:34:231:34:304:02 14.929VE1982WELKENRAEDT
22.2472FRITZ Didier45BELPSSACCHA1:34:281:34:334:02 14.9110VE1981
23.2404RICHARD Andre52BELARCH1:35:081:35:104:03 14.822VE2973DINANT
24.2282DUBOIS Jean-Philippe27BELJ.E.T.1:35:251:35:274:04 14.7712SEN969JAMBES
25.1185DARTE Eric42BELSMAC1:35:431:35:454:05 14.7311VE1965LEUZE-EGHEZEE
26.2554VERTE Patrick29BELAC DAMP1:35:561:36:014:06 14.6813SEN962BECKERICH
27.2316HAMON Gerard40FRA1:36:071:36:104:06 14.6612VE1960TRIGAVOU
28.1448HANOT Serge43BELUSBWRONVAU1:36:161:36:214:06 14.6313VE1957LATHUY
29.2307GRANDJEAN Pierre31BEL1:36:421:36:464:08 14.5714SEN952EREZÉE
30.541FILLEE Eric46BELUACDILAVILE1:37:071:37:084:08 14.5214VE1947CHATELINEAU
31.679MORONE Yves39BELRCNAMUR1:37:061:37:114:09 14.5115SEN947HAMOIS
32.2520HENRION Patrick48BELACCM1:37:271:37:334:10 14.4515VE1943
33.467LENAERS Charles D.47BEL1:37:401:37:444:10 14.4316VE1940LIEGE
34.2299GHYSELINCK Gunther35BELRUN FOR FUN1:38:101:38:154:11 14.3516SEN934ZOTTEGEM
35.131LEMAIRE Philippe40BELRONVAU1:38:181:38:204:12 14.3417VE1932LASNE
36.1398GILLET J.Paul60BELISV1:38:191:38:244:12 14.331VE3931VIRTON
37.1540VANDEVELDE Francis49BELFCHA1:38:321:38:364:12 14.3018VE1928LINTER
38.1172DIEPENDAELE Rudi43BELACLOTOTAL1:38:451:38:504:13 14.2719VE1925LA HESTRE
39.1530DEGEIMBRE Michel44BELARCH1:39:231:39:254:14 14.1820VE1918AWAGNE
40.2029VERRUE Vincent30BELWALCOURSE1:39:351:39:414:15 14.1417SEN915WALCOURT
41.675TRUYERS Hugo58BELDCLA1:40:071:40:134:16 14.073VE2909LINKHOUT
42.297BOUCHAT Albert39BELJOGGPLUS1:40:101:40:194:17 14.0618SEN908MEUX
43.2400PRANCKL Michael33BELARCH1:40:431:40:464:18 13.9919SEN902UCCLE
44.689KRINGS Viktor46BELTVK HBG1:40:431:40:484:18 13.9921VE1901BÜTGENBACH
45.2603BOURDON Alain43BELIXELJOGGPLUS1:41:071:41:124:19 13.9322VE1897BRUXELLES
46.959BARBIEUX Patrice49BEL1:41:111:41:174:19 13.9223VE1895MALONNE
47.1390PAULUS Philippe45BELESM1:41:121:41:234:19 13.9124VE1895MONT-SUR-MARCHIENNE
48.2487OUBOUSKOUR Brahim36BEL1:41:191:41:364:20 13.8820SEN893JUMET
49.2440VANCASTER Pierre33BELNAC1:41:461:41:524:21 13.8421SEN887ECAUSSINNES
50.356CARETTE Alain40BELJCL1:41:561:41:584:21 13.8325VE1886TEMPLEUVE
51.2337KAUTZMANN Luc40FRAVOSGIRUNNERS1:42:161:42:254:22 13.7726VE1881NIEDERBRONN
52.1109HANOTIAU Jean-Marc44BELCEPAL1:42:241:42:334:22 13.7527VE1880SAINT-JOSSE-TEN-NOODE
53.2237CASTERMANS David35BELOCANVO2NAMUR1:43:001:43:004:23 13.6922SEN873RHISNES
54.2433VAN ACKER Toon49BELSODIBRUG1:42:521:43:044:24 13.6828VE1874RUDDERVOORDE
55.1814DE CRAEMER Gilbert39BEL1:43:031:43:094:24 13.6723SEN871
56.2534VERDOODT Gilbert50BELACP1:43:191:43:244:24 13.644VE2868ASSE
57.292BLONDEAUX Yannick30BELWALCOURT1:43:191:43:264:25 13.6324SEN867THY LE CHÂTEAU
58.2347LANEAU Philippe49FRARETHEL COURIR1:43:271:43:294:25 13.6329VE1866ROCQUIGNY
59.2239CELLIER Thierry34BEL1:43:281:43:304:25 13.6225SEN865BEAUVECHAIN
60.2383MORVAN Jean-Gael31FRATOULOUSE1:43:231:43:384:25 13.6126SEN865TOULOUSE
61.2009DUPRET Didier39BELBAC1:43:401:43:464:25 13.5927SEN862CHERCQ
62.1278LORANT Manu44BEL1:43:441:43:504:26 13.5830VE1861MALONNE
63.2425SPARACIO Bruno33BEL1:44:101:44:114:26 13.5328SEN856TAMINES
64.2429THIBOUT Jean Marc48BEL1:44:101:44:144:27 13.5331VE1855OOSTENDE
65.519VANTSIOTIS Anasthase53BELFLEU1:44:171:44:214:27 13.515VE2854LE ROUX
66.1388LECOCQ Marc45BELUACTHIMEON1:44:151:44:214:27 13.5132VE1853PONT-A-CELLES
67.2019SOLBREUX Yves42BEL1:44:241:44:294:27 13.4933VE1851RAMILLIES
68.2306GRANDJEAN Benoit38BEL1:44:271:44:364:28 13.4829SEN850PROFONDEVILLE
69.327CANTELLA Massimo33BEL1:44:331:44:384:28 13.4830SEN849
70.1016HENRY Andre46BELTENDONS1:44:331:44:404:28 13.4734VE1848LA HULPE
71.2474DE BACKER Erwin49BEL1:44:231:44:404:28 13.4735VE1850ANTWERPEN
72.2465FRITZ Alain43BELPSSACCHA1:44:361:44:434:28 13.4636VE1847
73.2225BONATO Patrick46BEL1:44:361:44:444:28 13.4637VE1847MECHELEN
74.2452WEISS Christophe39FRAVOSGIRUNNERS1:44:371:44:454:28 13.4631SEN846NIEDERBRONN
75.228MARCHAL Yves36BELRUN WILD1:44:441:44:494:28 13.4532SEN844VEDRIN
76.2393PAQUET Jean Pierre43FRAPSA ACC1:44:491:44:554:28 13.4438VE1843SAINT LAURENT
77.223BOSCH Adrien15BELAMAY1:45:001:45:034:29 13.421ESP840VINALMONT
78.1370LEWILLION Philippe40BELFER1:45:061:45:134:29 13.4039VE1839FRAMERIES
79.906DELVAUX Paul62BELACA1:45:141:45:204:29 13.392VE3837DIEPENBEEK
80.2045BRANDENBOURG Jean-Jacques50BEL1:45:211:45:234:30 13.386VE2835FALMAGNE
81.1650NEYMAN Eric38BEL1:45:221:45:344:30 13.3633SEN835HERON
82.232VANDENBROECK Tom28BELDCLA1:45:301:45:354:30 13.3534SEN833
83.2038DURITA Zolika42BELJ.E.T.1:45:221:45:424:30 13.3440VE1834ENGHIEN
84.2318HEYDEN Christian42BEL1:45:421:45:504:31 13.3241VE1830ROCHEFORT
85.2059POULAIN Pascal42BEL1:45:361:45:514:31 13.3242VE1830SUARLEE
86.2507LAMETTE Pierre47BELARCHARCH1:45:481:45:514:31 13.3243VE1828
87.2483ROBIN Julien22BEL1:45:591:46:014:31 13.3035SEN825
88.1136GAUTIER Jacques44BEL1:45:571:46:044:31 13.2944VE1825MEUX
89.219DEWIT Raymond36BELAMAY1:45:581:46:084:31 13.2936SEN825WANZE
90.584UBIETA Didier45BELAMAY1:46:071:46:094:32 13.2845VE1822VINALMONT
91.2430TIEMEIJER Richard41NLDDREAMTEAM1:46:081:46:114:32 13.2846VE1822PEPINGEN
92.2464FCHARLOT Christelle32BELSMAC1:46:051:46:114:32 13.281DAM822SAMBREVILLE
93.557FONDU Jacques56BELFLEUESM1:46:021:46:164:32 13.277VE2822MONT-SUR-MARCHIENNE
94.2229BOUILLON Pascal49FRAFJEP ATTIGNY1:46:101:46:184:32 13.2647VE1820ATTIGNY
95.205RASSART Patrick48BELACLO1:45:591:46:204:32 13.2648VE1821MORLANWELZ
96.271GERLACHE Mathieu41BELCE CDO1:46:251:46:274:32 13.2549VE1817DAUSSOULX
97.1069DUTRIEUX Fernand35BELVELAINES1:46:261:46:284:32 13.2437SEN816BAUDOUR
98.313FLEGRAND Francine36BEL1:46:291:46:314:32 13.242DAM815VEDRIN
99.387BOSKIN Bernard18BEL1:46:391:46:484:33 13.202ESP813STAVELOT
100.2446VANRIE Pierre39BEL1:46:421:46:504:33 13.2038SEN812BRUXELLES
101.2215BATEMAN James39GBRHANDY CROSS RUN1:46:431:47:024:34 13.1739SEN8111TN
102.1765VAN DER LINDEN Paul57BEL1:47:111:47:144:34 13.158VE2806MALONNE
103.5741MOLITOR Andre45BEL1:47:261:47:294:35 13.1250VE1803HARGIMONT
104.2236CALLIER Philippe43FRATOS JURA1:47:291:47:354:35 13.1151VE1802MESNAY
105.2335JUSTINE Alain53BELRIWA1:47:421:47:434:36 13.099VE2799RIXENSART
106.485ROSILLON Dominique49BELARCH1:47:541:47:594:36 13.0652VE1797SOREE
107.2557JEANTY Eric48BEL1:48:051:48:074:37 13.0453VE1794
108.2253CRUCIFIX Etienne40BELFLOT1:48:061:48:084:37 13.0454VE1794ANTHÉE
109.2515ROSITANO Franco52BELJC BAUDOUR1:48:141:48:184:37 13.0210VE2792BAUDOUR
110.2578FLEROUX Claire25BEL1:48:121:48:304:38 13.003DAM792
111.2533FVANLOMMEL Linda31BELARISTA1:48:321:48:374:38 12.984DAM788HOUTVENNE
112.2466FURNARI Roberto50BELJ.E.T.1:48:231:48:434:38 12.9711VE2789TUBIZE
113.1815DIEUDONNE Emile53BELARCH1:48:491:49:064:39 12.9212VE2784DINANT
114.314LEROY Patrick35BEL1:48:521:49:194:40 12.9040SEN783MARBEHAN
115.2284ELKALISCH Abdel46BELDREAMTEAM1:49:181:49:214:40 12.8955VE1778BRUSSEL
116.2230BOULA Karim19BELARCH1:49:291:49:314:40 12.873ESP776DINANT
117.521RAEYMAEKERS Ludovic52BELBVAC1:49:231:49:324:40 12.8713VE2776MORTSEL
118.1980VIDICK Jean-Luc53BEL1:49:311:49:344:40 12.8714VE2775BRUXELLES
119.392FBRIALMONT Irene49BELSPASPA MON1:49:331:49:354:40 12.871AI1774SPA
120.2503WYNINCK Jan40BEL1:49:301:49:384:40 12.8656VE1774
121.2323HUBERT Pascal40BELARCH1:49:381:49:534:41 12.8357VE1772BRAIBANT
122.2010FFAVEAUX Patricia39BELARCH1:49:511:49:534:41 12.835DAM770CINEY
123.1374FALEXANDRE Francoise51BELOCAN1:50:021:50:094:42 12.801AI2767JAMBES
124.2371MARTHOZ Pascal37BELCEPAL1:50:081:50:164:42 12.7941SEN766IXELLES
125.781OLIVIER Bob47BELACOREYE1:50:151:50:194:42 12.7858VE1764WAREMME
126.1867RUELLE Jean34BELETCHIEVR1:50:151:50:214:42 12.7842SEN764WEZEMBEEK-OPPEM
127.2290FIRRE Gerald41BEL1:50:171:50:244:42 12.7759VE1763MESSANCY
128.2350LECLEF Jose49FRAPSA ACC1:50:171:50:324:43 12.7660VE1762NOUZONVILLE
129.2469MESTER Marcel59BEL1:50:281:50:354:43 12.7515VE2760FRAMERIES
130.2591HILDERBON Luc54BEL1:50:381:50:474:43 12.7316VE2758
131.727LEUS Stefan39BEL1:50:331:50:504:43 12.7243SEN759HOLSBEEK
132.357CREMER Patrick48BELRT BRAIVES1:50:481:50:534:44 12.7261VE1755HANNUT
133.2028VERHEYEN Cédric28BEL1:50:571:51:044:44 12.7044SEN754ON
134.2556LEMAIRE Eric39BEL1:50:491:51:134:44 12.6845SEN754
135.2410ROSIER Dany45BEL1:51:141:51:184:45 12.6762VE1750DINANT
136.2344LADOUCE Pierre42BELARCH1:51:031:51:204:45 12.6663VE1751MOUSTIER SUR SAMBRE
137.2451FWARD Caroline28GBRHANDY CROSS RUN1:51:111:51:234:45 12.666DAM749HIGH WYCOMBE
138.2535GAZENGEL Didier48FRA1:51:031:51:234:45 12.6664VE1750
139.378BLAUWART Emmanuel38BELETCHIEVR1:51:181:51:344:45 12.6446SEN747HERCHIES
140.360WAROUX Patrick43BELETCHIEVR1:51:191:51:344:45 12.6465VE1746CASTEAU
141.2241CLARINVAL Antoine18BELJCCS1:51:241:51:594:46 12.594ESP745GEDINNE
142.2353KAYE Paul37BEL1:51:131:52:014:46 12.5947SEN746BRUXELLES
143.2531DELVAUX Philippe43BELSMAC1:51:511:52:014:46 12.5966VE1740JAMBES (NAMUR)
144.2509FONTAINE Philippe42BELSMAC1:51:541:52:084:47 12.5767VE1739NAMUR
145.2375MÉLOTTE Henri42BELRUNPRO1:52:031:52:184:47 12.5668VE1737PROFONDEVILLE
146.2576PIERLOT Serge48BEL1:52:201:52:354:48 12.5269VE1734
147.1464DESSEILLE Ernest52BEL1:52:051:52:434:48 12.5117VE2736WÉPION
148.404TILBURGS Frank39BELAVN1:52:351:52:524:49 12.4948SEN730MEER
149.193DI BIASE Renato41BELBOUFFIOL1:52:391:52:554:49 12.4970VE1729COUILLET
150.310ANTENUCCI Mauro49BELFLEUESM1:52:481:53:024:49 12.4771VE1727GOSSELIES
151.2223BODSON Dominique35BEL1:52:541:53:064:49 12.4749SEN726GRAND-HALLEUX
152.2555VOLPI Alexandre50FRA1:52:541:53:184:50 12.4418VE2725
153.156DUMONT J.Luc49BELACLOST BERNARD1:53:011:53:204:50 12.4472VE1724LA LOUVIERE
154.1828EVRARD Michel49BELARCH1:53:161:53:214:50 12.4473VE1721WELLIN
155.2544AUDRAN Frederic33FRA1:53:001:53:244:50 12.4350SEN723VIREUX WALLERAND
156.2559GIRARD Pascal39BEL1:53:001:53:274:50 12.4351SEN723
157.2528BAROTH Roger52BELFMAC1:53:301:53:344:50 12.4219VE2717
158.2798MELLARD Jean-Emile24BEL1:53:141:53:394:51 12.4152SEN719
159.148BERTRAND Claude49BELSMAC1:53:111:53:404:51 12.4074VE1719FLAWINNE
160.2048DEHAS Djellali47FRAFREMEN1:53:251:53:484:51 12.3975VE1717AUBRIVES
161.2521PERRUQUET Xavier31FRA1:53:291:53:554:51 12.3853SEN715HAYBES SUR MEUSE
162.1737DETROZ Luc45BELRC NAMUR1:53:471:53:574:51 12.3776VE1712VEDRIN
163.656MONTESSINO J.Paul60BELCRACESM1:53:481:54:034:52 12.363VE3712MARCHIENNE-AU-PONT
164.2595BURTEMBOY Gregory29BEL1:54:001:54:044:52 12.3654SEN709
165.2340KRIER Benoit35BEL1:54:071:54:224:52 12.3355SEN708SELANGE
166.2413RUDY Augusteyns46BELHARAKA1:54:061:54:244:53 12.3377VE1707HEMIKSEM
167.1229HOUSSIER Didier41BEL1:54:181:54:274:53 12.3278VE1705VILVOORDE
168.1992FDAMBLON Regine51BELACLOBJB1:54:241:54:314:53 12.312AI2703LA LOUVIERE
169.2203AMET Didier41FRAVOSGIRUNNERS1:54:231:54:324:53 12.3179VE1703NIEDERBRONN
170.2256DAHOUT Stéphane46BEL1:54:361:54:394:53 12.3080VE1701CINEY
171.1881FBLAISE Christiane44BELARCH1:54:211:54:404:53 12.302AI1702ANTHEE
172.692ROBERT Michel56BELBOUFFIOLS/GERPI1:54:271:54:434:53 12.2920VE2701GERPINNES
173.693CHAUVIER J.Pierre46BELWALCOURT1:54:251:54:454:53 12.2981VE1701YVES-GOMEZEE
174.269NENNEN Arnaud43BELSMAC1:54:501:55:014:54 12.2682VE1696GELBRESSEE
175.1617PINDEVILLE Christian58BELRIWA1:54:521:55:044:54 12.2521VE2695WAVRE
176.2432VALANGE Jean45BELARCH1:54:581:55:064:54 12.2583VE1694SERINCHAMPS
177.2577PIER Jacques41BEL1:55:061:55:154:55 12.2384VE1692
178.2209BAILLY Jean-Luc29BELJUDO CLUB LOUVI1:54:441:55:224:55 12.2256SEN695LA LOUVIÈRE
179.1182GRANDMONT Andre45BELARCH1:55:151:55:254:55 12.2285VE1690DINANT
180.2374MARTIN Michel44FRAFJEP ATTIGNY1:55:181:55:264:55 12.2186VE1689GIVRY SUR AISNE
181.992LETHE Vincent46BELRONVAU1:55:211:55:314:55 12.2187VE1688TOURINNES-SAINT-LAMBERT
182.623PISCART Pierre46BELONHOXY20001:55:251:55:404:56 12.1988VE1687MONS
183.2292FFLORENT Régine48BELARCH1:55:401:55:444:56 12.183AI1684BELGIQUE
184.1631CADO Paul46BELFLEU1:55:381:55:454:56 12.1889VE1684LIGNY
185.2565DELERS Pascal43BEL1:55:361:55:494:56 12.1790VE1684
186.1454MUYTJENS Rene61BEL1:55:491:55:534:56 12.174VE3681OTTIGNIES
187.1773PAHAUT Christian49BELANTILOB1:55:441:55:534:56 12.1791VE1682LIMAL
188.270LAURENT Jacques56BELJC.BAUDOUR1:56:071:56:144:57 12.1322VE2677BAUDOUR
189.695DE DAPPER David33BELKIA LELEUX1:56:111:56:164:57 12.1357SEN676BRUXELLES
190.2369MARELLA Frank35BELTJ1:56:031:56:204:58 12.1258SEN677OHEY
191.1989FDEMOULIN Brigitte46BELSMAC1:56:161:56:204:58 12.124AI1675LUSTIN
192.2553DUMONT Luc46BEL1:56:191:56:354:58 12.0992VE1674
193.2490FGELYNS Leen49BELACHILLES1:56:131:56:384:58 12.095AI1674
194.2321HOULLE Daniel41FRAVOSGIRUNNERS1:56:051:56:494:59 12.0793VE1675NIEDERBRONN
195.2449VERMEERE Didier36BELJ.E.T.1:56:331:56:534:59 12.0659SEN670TUBIZE
196.2489GOULET Fabrice47BELLA MACERIENNE1:56:381:56:584:59 12.0594VE1669
197.2484HENDRICK Jean-Michel33BEL1:56:341:56:584:59 12.0560SEN669
198.353VALCKX Geert43BELASSURBANIPAL1:56:401:56:594:59 12.0595VE1667BERTEM
199.33GEORGES François50BEL1:56:521:56:594:59 12.0523VE2665IXELLES
200.1070CARTON Hubert50BEL1:56:581:57:024:59 12.0524VE2664SOVET
DNF: did not finish; DSQ: disqualified; Speed in km/h